Time,TemperatureF,DewpointF,PressureIn,WindDirection,WindDirectionDegrees,WindSpeedMPH,WindSpeedGustMPH,Humidity,HourlyPrecipIn,Conditions,Clouds,dailyrainin,SoftwareType,DateUTC
2013-08-30 00:01:00,72.1,65.2,29.96,NE,41,0.0,0.0,79,0.00,CLR,,0.00,WeatherDisplay:10.37,2013-08-30 04:01:00,
2013-08-30 00:03:00,72.0,65.5,29.96,NE,41,0.0,0.0,80,0.00,CLR,,0.00,WeatherDisplay:10.37,2013-08-30 04:03:00,
2013-08-30 00:07:00,71.7,65.2,29.96,NE,41,0.0,0.0,80,0.00,CLR,,0.00,WeatherDisplay:10.37,2013-08-30 04:07:00,
2013-08-30 00:12:00,71.8,64.6,29.96,NE,41,0.0,0.0,78,0.00,CLR,,0.00,WeatherDisplay:10.37,2013-08-30 04:12:00,
2013-08-30 00:17:00,72.1,64.5,29.96,NE,41,0.0,0.0,77,0.00,CLR,,0.00,WeatherDisplay:10.37,2013-08-30 04:17:00,
2013-08-30 00:22:00,72.1,64.5,29.95,NE,41,0.0,0.0,77,0.00,CLR,,0.00,WeatherDisplay:10.37,2013-08-30 04:22:00,
2013-08-30 00:27:00,72.0,64.4,29.96,NE,41,0.0,0.0,77,0.00,CLR,,0.00,WeatherDisplay:10.37,2013-08-30 04:27:00,
2013-08-30 00:32:00,71.9,64.7,29.96,NE,41,0.0,0.0,78,0.00,CLR,,0.00,WeatherDisplay:10.37,2013-08-30 04:32:00,
2013-08-30 00:37:00,71.7,64.5,29.96,NE,41,0.0,0.0,78,0.00,CLR,,0.00,WeatherDisplay:10.37,2013-08-30 04:37:00,
2013-08-30 00:42:00,71.7,64.5,29.95,NE,41,0.0,0.0,78,0.00,CLR,,0.00,WeatherDisplay:10.37,2013-08-30 04:42:00,
2013-08-30 00:47:00,71.9,64.3,29.95,NE,41,0.0,0.0,77,0.00,CLR,,0.00,WeatherDisplay:10.37,2013-08-30 04:47:00,
2013-08-30 00:52:00,72.1,64.5,29.95,NE,41,0.0,0.0,77,0.00,CLR,,0.00,WeatherDisplay:10.37,2013-08-30 04:52:00,
2013-08-30 00:57:00,72.1,64.5,29.95,NE,41,0.0,0.0,77,0.00,CLR,,0.00,WeatherDisplay:10.37,2013-08-30 04:57:00,
2013-08-30 01:02:00,71.7,64.5,29.95,NE,41,0.0,0.0,78,0.00,CLR,,0.00,WeatherDisplay:10.37,2013-08-30 05:02:00,
2013-08-30 01:07:00,71.4,64.9,29.95,NE,41,0.0,0.0,80,0.00,CLR,,0.00,WeatherDisplay:10.37,2013-08-30 05:07:00,
2013-08-30 01:12:00,71.2,64.4,29.95,NE,41,0.0,0.0,79,0.00,CLR,,0.00,WeatherDisplay:10.37,2013-08-30 05:12:00,
2013-08-30 01:17:00,71.3,64.1,29.95,NE,41,0.0,0.0,78,0.00,CLR,,0.00,WeatherDisplay:10.37,2013-08-30 05:17:00,
2013-08-30 01:22:00,71.5,63.9,29.95,NE,41,0.0,0.0,77,0.00,CLR,,0.00,WeatherDisplay:10.37,2013-08-30 05:22:00,
2013-08-30 01:27:00,71.3,64.1,29.95,NE,41,0.0,0.0,78,0.00,CLR,,0.00,WeatherDisplay:10.37,2013-08-30 05:27:00,
2013-08-30 01:32:00,70.9,64.1,29.95,NE,41,0.0,0.0,79,0.00,CLR,,0.00,WeatherDisplay:10.37,2013-08-30 05:32:00,
2013-08-30 01:37:00,70.8,64.7,29.95,NE,41,0.0,0.0,81,0.00,CLR,,0.00,WeatherDisplay:10.37,2013-08-30 05:37:00,
2013-08-30 01:42:00,70.5,64.7,29.95,NE,41,1.2,0.0,82,0.00,CLR,,0.00,WeatherDisplay:10.37,2013-08-30 05:42:00,
2013-08-30 01:47:00,70.9,65.1,29.95,NE,41,0.0,0.0,82,0.00,CLR,,0.00,WeatherDisplay:10.37,2013-08-30 05:47:00,
2013-08-30 01:52:00,71.2,64.7,29.95,NE,41,0.0,0.0,80,0.00,CLR,,0.00,WeatherDisplay:10.37,2013-08-30 05:52:00,
2013-08-30 01:57:00,71.7,64.8,29.94,NE,41,1.2,0.0,79,0.00,CLR,,0.00,WeatherDisplay:10.37,2013-08-30 05:57:00,
2013-08-30 02:02:00,71.9,64.7,29.94,NE,41,1.2,0.0,78,0.00,CLR,,0.00,WeatherDisplay:10.37,2013-08-30 06:02:00,
2013-08-30 02:07:00,72.1,64.9,29.94,SSW,205,3.5,3.5,78,0.00,CLR,,0.00,WeatherDisplay:10.37,2013-08-30 06:07:00,
2013-08-30 02:12:00,72.2,65.0,29.94,SSW,198,3.0,3.0,78,0.00,CLR,,0.00,WeatherDisplay:10.37,2013-08-30 06:12:00,
2013-08-30 02:17:00,71.9,64.7,29.94,SSW,198,1.2,0.0,78,0.00,CLR,,0.00,WeatherDisplay:10.37,2013-08-30 06:17:00,
2013-08-30 02:22:00,71.7,64.8,29.94,SSW,200,0.0,0.0,79,0.00,CLR,,0.00,WeatherDisplay:10.37,2013-08-30 06:22:00,
2013-08-30 02:27:00,71.6,64.7,29.94,SSW,199,2.3,2.3,79,0.00,CLR,,0.00,WeatherDisplay:10.37,2013-08-30 06:27:00,
2013-08-30 02:32:00,71.4,64.9,29.94,South,188,3.0,3.0,80,0.00,CLR,,0.00,WeatherDisplay:10.37,2013-08-30 06:32:00,
2013-08-30 02:37:00,71.3,64.8,29.94,South,188,1.2,0.0,80,0.00,CLR,,0.00,WeatherDisplay:10.37,2013-08-30 06:37:00,
2013-08-30 02:42:00,71.2,65.1,29.94,South,188,1.0,1.0,81,0.00,CLR,,0.00,WeatherDisplay:10.37,2013-08-30 06:42:00,
2013-08-30 02:47:00,71.0,64.9,29.94,South,190,4.0,4.0,81,0.00,CLR,,0.00,WeatherDisplay:10.37,2013-08-30 06:47:00,
2013-08-30 02:52:00,70.9,65.1,29.94,South,183,3.5,3.5,82,0.00,CLR,,0.00,WeatherDisplay:10.37,2013-08-30 06:52:00,
2013-08-30 02:57:00,71.0,65.2,29.94,South,186,1.2,0.0,82,0.00,CLR,,0.00,WeatherDisplay:10.37,2013-08-30 06:57:00,
2013-08-30 03:02:00,71.0,65.2,29.94,South,189,1.2,0.0,82,0.00,CLR,,0.00,WeatherDisplay:10.37,2013-08-30 07:02:00,
2013-08-30 03:07:00,71.0,65.2,29.94,South,187,3.5,3.5,82,0.00,CLR,,0.00,WeatherDisplay:10.37,2013-08-30 07:07:00,
2013-08-30 03:12:00,70.9,65.1,29.93,South,190,2.3,0.0,82,0.00,CLR,,0.00,WeatherDisplay:10.37,2013-08-30 07:12:00,
2013-08-30 03:17:00,70.7,64.9,29.94,South,190,1.2,0.0,82,0.00,CLR,,0.00,WeatherDisplay:10.37,2013-08-30 07:17:00,
2013-08-30 03:22:00,70.5,64.7,29.94,South,190,0.0,0.0,82,0.00,CLR,,0.00,WeatherDisplay:10.37,2013-08-30 07:22:00,
2013-08-30 03:27:00,69.8,64.1,29.94,South,190,0.0,0.0,82,0.00,CLR,,0.00,WeatherDisplay:10.37,2013-08-30 07:27:00,
2013-08-30 03:32:00,69.5,64.1,29.93,South,190,0.0,0.0,83,0.00,CLR,,0.00,WeatherDisplay:10.37,2013-08-30 07:32:00,
2013-08-30 03:37:00,69.2,63.8,29.93,South,190,0.0,0.0,83,0.00,CLR,,0.00,WeatherDisplay:10.37,2013-08-30 07:37:00,
2013-08-30 03:42:00,68.9,63.9,29.93,South,190,0.0,0.0,84,0.00,CLR,,0.00,WeatherDisplay:10.37,2013-08-30 07:42:00,
2013-08-30 03:47:00,68.8,64.1,29.93,South,190,0.0,0.0,85,0.00,CLR,,0.00,WeatherDisplay:10.37,2013-08-30 07:47:00,
2013-08-30 03:52:00,68.9,64.2,29.94,South,190,0.0,0.0,85,0.00,CLR,,0.00,WeatherDisplay:10.37,2013-08-30 07:52:00,
2013-08-30 03:57:00,68.8,64.1,29.93,South,190,0.0,0.0,85,0.00,CLR,,0.00,WeatherDisplay:10.37,2013-08-30 07:57:00,
2013-08-30 04:02:00,68.8,64.1,29.93,South,190,0.0,0.0,85,0.00,CLR,,0.00,WeatherDisplay:10.37,2013-08-30 08:02:00,
2013-08-30 04:07:00,68.7,64.0,29.93,South,190,0.0,0.0,85,0.00,CLR,,0.00,WeatherDisplay:10.37,2013-08-30 08:07:00,
2013-08-30 04:12:00,68.7,64.0,29.94,South,190,0.0,0.0,85,0.00,CLR,,0.00,WeatherDisplay:10.37,2013-08-30 08:12:00,
2013-08-30 04:17:00,68.7,64.0,29.94,South,190,0.0,0.0,85,0.00,CLR,,0.00,WeatherDisplay:10.37,2013-08-30 08:17:00,
2013-08-30 04:22:00,68.5,64.1,29.94,South,190,0.0,0.0,86,0.00,CLR,,0.00,WeatherDisplay:10.37,2013-08-30 08:22:00,
2013-08-30 04:27:00,68.4,64.0,29.94,South,190,1.2,0.0,86,0.00,CLR,,0.00,WeatherDisplay:10.37,2013-08-30 08:27:00,
2013-08-30 04:32:00,68.4,64.0,29.94,South,190,1.2,1.2,86,0.00,CLR,,0.00,WeatherDisplay:10.37,2013-08-30 08:32:00,
2013-08-30 04:37:00,68.4,64.0,29.94,SSW,202,1.2,0.0,86,0.00,CLR,,0.00,WeatherDisplay:10.37,2013-08-30 08:37:00,
2013-08-30 04:42:00,68.5,64.1,29.94,SSW,199,4.0,4.0,86,0.00,CLR,,0.00,WeatherDisplay:10.37,2013-08-30 08:42:00,
2013-08-30 04:47:00,68.5,64.1,29.94,SSW,202,3.5,3.5,86,0.00,CLR,,0.00,WeatherDisplay:10.37,2013-08-30 08:47:00,
2013-08-30 04:52:00,68.6,64.2,29.94,SW,221,3.0,3.0,86,0.00,CLR,,0.00,WeatherDisplay:10.37,2013-08-30 08:52:00,
2013-08-30 04:57:00,68.6,64.2,29.94,SSW,207,3.5,3.5,86,0.00,CLR,,0.00,WeatherDisplay:10.37,2013-08-30 08:57:00,
2013-08-30 05:02:00,68.6,64.2,29.94,SW,217,2.0,2.0,86,0.00,CLR,,0.00,WeatherDisplay:10.37,2013-08-30 09:02:00,
2013-08-30 05:07:00,68.5,64.1,29.94,SSW,209,3.5,3.5,86,0.00,CLR,,0.00,WeatherDisplay:10.37,2013-08-30 09:07:00,
2013-08-30 05:12:00,68.5,64.1,29.94,SSW,211,4.0,4.0,86,0.00,CLR,,0.00,WeatherDisplay:10.37,2013-08-30 09:12:00,
2013-08-30 05:17:00,68.3,63.9,29.94,SSW,213,5.0,5.0,86,0.00,CLR,,0.00,WeatherDisplay:10.37,2013-08-30 09:17:00,
2013-08-30 05:22:00,68.3,63.9,29.94,SW,229,4.0,4.0,86,0.00,CLR,,0.00,WeatherDisplay:10.37,2013-08-30 09:22:00,
2013-08-30 05:27:00,68.3,63.9,29.94,SW,222,4.6,4.6,86,0.00,CLR,,0.00,WeatherDisplay:10.37,2013-08-30 09:27:00,
2013-08-30 05:32:00,68.3,63.9,29.94,SW,214,4.0,4.0,86,0.00,CLR,,0.00,WeatherDisplay:10.37,2013-08-30 09:32:00,
2013-08-30 05:37:00,68.3,63.9,29.94,SW,215,4.0,4.0,86,0.00,CLR,,0.00,WeatherDisplay:10.37,2013-08-30 09:37:00,
2013-08-30 05:42:00,68.3,63.9,29.94,SW,218,4.0,4.0,86,0.00,CLR,,0.00,WeatherDisplay:10.37,2013-08-30 09:42:00,
2013-08-30 05:47:00,68.3,63.9,29.94,SW,216,4.0,4.0,86,0.00,CLR,,0.00,WeatherDisplay:10.37,2013-08-30 09:47:00,
2013-08-30 05:52:00,68.2,63.9,29.94,SSW,213,5.0,5.0,86,0.00,CLR,,0.00,WeatherDisplay:10.37,2013-08-30 09:52:00,
2013-08-30 05:57:00,68.2,63.9,29.94,SSW,213,5.0,5.0,86,0.00,CLR,,0.00,WeatherDisplay:10.37,2013-08-30 09:57:00,
2013-08-30 06:02:00,68.1,63.8,29.94,SSW,211,4.0,4.0,86,0.00,CLR,,0.00,WeatherDisplay:10.37,2013-08-30 10:02:00,
2013-08-30 06:07:00,68.1,63.8,29.94,SW,223,5.0,5.0,86,0.00,CLR,,0.00,WeatherDisplay:10.37,2013-08-30 10:07:00,
2013-08-30 06:12:00,68.1,63.4,29.94,SSW,211,4.0,4.0,85,0.00,CLR,,0.00,WeatherDisplay:10.37,2013-08-30 10:12:00,
2013-08-30 06:17:00,68.1,63.4,29.94,SW,217,4.0,4.0,85,0.00,CLR,,0.00,WeatherDisplay:10.37,2013-08-30 10:17:00,
2013-08-30 06:22:00,68.1,63.4,29.94,SSW,209,4.0,4.0,85,0.00,CLR,,0.00,WeatherDisplay:10.37,2013-08-30 10:22:00,
2013-08-30 06:27:00,68.2,63.5,29.94,SW,214,5.0,5.0,85,0.00,CLR,,0.00,WeatherDisplay:10.37,2013-08-30 10:27:00,
2013-08-30 06:32:00,68.2,63.5,29.94,SSW,207,4.0,4.0,85,0.00,CLR,,0.00,WeatherDisplay:10.37,2013-08-30 10:32:00,
2013-08-30 06:37:00,68.2,63.5,29.94,SW,219,4.0,4.0,85,0.00,CLR,,0.00,WeatherDisplay:10.37,2013-08-30 10:37:00,
2013-08-30 06:42:00,68.2,63.5,29.94,SSW,206,4.0,4.0,85,0.00,CLR,,0.00,WeatherDisplay:10.37,2013-08-30 10:42:00,
2013-08-30 06:47:00,68.1,63.4,29.94,SSW,209,4.0,4.0,85,0.00,CLR,,0.00,WeatherDisplay:10.37,2013-08-30 10:47:00,
2013-08-30 06:52:00,68.1,63.4,29.94,SW,215,4.6,4.6,85,0.00,CLR,,0.00,WeatherDisplay:10.37,2013-08-30 10:52:00,
2013-08-30 06:57:00,68.1,63.4,29.94,SSW,201,5.8,5.8,85,0.00,CLR,,0.00,WeatherDisplay:10.37,2013-08-30 10:57:00,
2013-08-30 07:02:00,68.0,63.3,29.94,SSW,204,5.0,5.0,85,0.00,CLR,,0.00,WeatherDisplay:10.37,2013-08-30 11:02:00,
2013-08-30 07:07:00,68.1,63.4,29.94,South,175,5.0,5.0,85,0.00,CLR,,0.00,WeatherDisplay:10.37,2013-08-30 11:07:00,
2013-08-30 07:12:00,67.9,63.2,29.94,SSW,209,4.0,4.0,85,0.00,CLR,,0.00,WeatherDisplay:10.37,2013-08-30 11:12:00,
2013-08-30 07:17:00,67.9,63.2,29.95,South,182,3.5,3.5,85,0.00,CLR,,0.00,WeatherDisplay:10.37,2013-08-30 11:17:00,
2013-08-30 07:22:00,68.0,63.3,29.95,South,189,5.0,5.0,85,0.00,CLR,,0.00,WeatherDisplay:10.37,2013-08-30 11:22:00,
2013-08-30 07:27:00,68.0,63.3,29.95,South,188,5.0,5.0,85,0.00,CLR,,0.00,WeatherDisplay:10.37,2013-08-30 11:27:00,
2013-08-30 07:32:00,67.9,63.2,29.95,SSW,197,5.8,5.8,85,0.00,CLR,,0.00,WeatherDisplay:10.37,2013-08-30 11:32:00,
2013-08-30 07:37:00,67.9,63.2,29.95,SSW,196,6.0,6.0,85,0.00,CLR,,0.00,WeatherDisplay:10.37,2013-08-30 11:37:00,
2013-08-30 07:42:00,67.7,63.0,29.95,South,182,8.0,8.0,85,0.00,CLR,,0.00,WeatherDisplay:10.37,2013-08-30 11:42:00,
2013-08-30 07:47:00,67.7,63.0,29.95,South,183,8.1,8.1,85,0.00,CLR,,0.00,WeatherDisplay:10.37,2013-08-30 11:47:00,
2013-08-30 07:52:00,67.8,63.1,29.95,SSW,200,9.2,9.2,85,0.00,CLR,,0.00,WeatherDisplay:10.37,2013-08-30 11:52:00,
2013-08-30 07:57:00,67.9,63.2,29.95,South,184,8.0,8.0,85,0.00,CLR,,0.00,WeatherDisplay:10.37,2013-08-30 11:57:00,
2013-08-30 08:02:00,67.8,63.1,29.95,SSW,202,9.2,9.2,85,0.00,CLR,,0.00,WeatherDisplay:10.37,2013-08-30 12:02:00,
2013-08-30 08:07:00,67.7,63.0,29.95,SW,214,9.2,9.2,85,0.00,CLR,,0.00,WeatherDisplay:10.37,2013-08-30 12:07:00,
2013-08-30 08:12:00,67.8,63.1,29.95,SSW,202,8.1,8.1,85,0.00,CLR,,0.00,WeatherDisplay:10.37,2013-08-30 12:12:00,
2013-08-30 08:17:00,67.8,63.1,29.95,SW,214,9.2,9.2,85,0.00,CLR,,0.00,WeatherDisplay:10.37,2013-08-30 12:17:00,
2013-08-30 08:22:00,67.7,63.0,29.95,SSW,200,8.1,8.1,85,0.00,CLR,,0.00,WeatherDisplay:10.37,2013-08-30 12:22:00,
2013-08-30 08:27:00,67.7,63.0,29.95,SSW,194,8.1,8.1,85,0.00,CLR,,0.00,WeatherDisplay:10.37,2013-08-30 12:27:00,
2013-08-30 08:32:00,67.7,63.0,29.95,SSW,211,7.0,7.0,85,0.00,CLR,,0.00,WeatherDisplay:10.37,2013-08-30 12:32:00,
2013-08-30 08:37:00,67.9,63.2,29.94,South,191,9.2,9.2,85,0.00,CLR,,0.00,WeatherDisplay:10.37,2013-08-30 12:37:00,
2013-08-30 08:42:00,67.9,63.2,29.94,South,180,7.0,7.0,85,0.00,CLR,,0.00,WeatherDisplay:10.37,2013-08-30 12:42:00,
2013-08-30 08:47:00,68.2,63.5,29.95,South,190,7.0,7.0,85,0.00,CLR,,0.00,WeatherDisplay:10.37,2013-08-30 12:47:00,
2013-08-30 08:52:00,68.5,63.8,29.95,SSW,195,6.0,6.0,85,0.00,CLR,,0.00,WeatherDisplay:10.37,2013-08-30 12:52:00,
2013-08-30 08:57:00,68.8,64.1,29.95,SW,229,6.0,6.0,85,0.00,CLR,,0.00,WeatherDisplay:10.37,2013-08-30 12:57:00,
2013-08-30 09:02:00,69.2,64.5,29.95,South,184,6.0,6.0,85,0.00,CLR,,0.00,WeatherDisplay:10.37,2013-08-30 13:02:00,
2013-08-30 09:07:00,69.5,64.8,29.95,SSW,197,4.6,4.6,85,0.00,CLR,,0.00,WeatherDisplay:10.37,2013-08-30 13:07:00,
2013-08-30 09:12:00,70.1,65.4,29.96,SW,230,3.0,3.0,85,0.00,CLR,,0.00,WeatherDisplay:10.37,2013-08-30 13:12:00,
2013-08-30 09:17:00,70.4,65.7,29.96,SW,217,4.0,4.0,85,0.00,CLR,,0.00,WeatherDisplay:10.37,2013-08-30 13:17:00,
2013-08-30 09:22:00,71.0,66.3,29.96,SW,235,7.0,7.0,85,0.00,CLR,,0.00,WeatherDisplay:10.37,2013-08-30 13:22:00,
2013-08-30 09:27:00,71.4,66.3,29.96,SW,227,9.2,9.2,84,0.00,CLR,,0.00,WeatherDisplay:10.37,2013-08-30 13:27:00,
2013-08-30 09:32:00,71.8,66.4,29.95,SW,227,10.4,10.4,83,0.00,CLR,,0.00,WeatherDisplay:10.37,2013-08-30 13:32:00,
2013-08-30 09:37:00,71.9,66.1,29.95,SW,221,10.4,10.4,82,0.00,CLR,,0.00,WeatherDisplay:10.37,2013-08-30 13:37:00,
2013-08-30 09:42:00,72.4,66.6,29.95,WSW,244,8.0,8.0,82,0.00,CLR,,0.00,WeatherDisplay:10.37,2013-08-30 13:42:00,
2013-08-30 09:47:00,72.9,67.1,29.95,SW,218,6.9,6.9,82,0.00,CLR,,0.00,WeatherDisplay:10.37,2013-08-30 13:47:00,
2013-08-30 09:52:00,73.3,66.8,29.95,SW,229,9.2,9.2,80,0.00,CLR,,0.00,WeatherDisplay:10.37,2013-08-30 13:52:00,
2013-08-30 09:57:00,73.5,66.9,29.96,WSW,240,10.4,10.4,80,0.00,CLR,,0.00,WeatherDisplay:10.37,2013-08-30 13:57:00,
2013-08-30 10:02:00,74.0,67.1,29.95,WSW,240,11.5,11.5,79,0.00,CLR,,0.00,WeatherDisplay:10.37,2013-08-30 14:02:00,
2013-08-30 10:07:00,74.5,67.2,29.95,WSW,250,11.5,11.5,78,0.00,CLR,,0.00,WeatherDisplay:10.37,2013-08-30 14:07:00,
2013-08-30 10:12:00,74.8,67.5,29.95,SSW,206,12.7,12.7,78,0.00,CLR,,0.00,WeatherDisplay:10.37,2013-08-30 14:12:00,
2013-08-30 10:15:00,77.8,68.4,29.80,SW,224,1.0,4.0,73,0.00,CLR,CLR,0.00,WeatherDisplay:10.37,2013-08-30 14:15:00,
2013-08-30 10:17:00,75.5,68.2,29.95,SW,236,11.5,11.5,78,0.00,CLR,,0.00,WeatherDisplay:10.37,2013-08-30 14:17:00,
2013-08-30 10:20:00,77.6,68.3,29.80,SW,224,0.0,3.0,73,0.00,CLR,CLR,0.00,WeatherDisplay:10.37,2013-08-30 14:20:00,
2013-08-30 10:22:00,75.8,68.1,29.95,WSW,242,15.0,15.0,77,0.00,CLR,,0.00,WeatherDisplay:10.37,2013-08-30 14:22:00,
2013-08-30 10:27:00,75.8,67.7,29.95,WSW,257,12.0,12.0,76,0.00,CLR,,0.00,WeatherDisplay:10.37,2013-08-30 14:27:00,
2013-08-30 10:32:00,76.1,67.6,29.95,SW,215,15.0,15.0,75,0.00,CLR,,0.00,WeatherDisplay:10.37,2013-08-30 14:32:00,
2013-08-30 10:37:00,76.4,68.3,29.95,SW,236,12.0,12.0,76,0.00,CLR,,0.00,WeatherDisplay:10.37,2013-08-30 14:37:00,
2013-08-30 10:42:00,76.7,68.2,29.95,WSW,250,13.8,13.8,75,0.00,CLR,,0.00,WeatherDisplay:10.37,2013-08-30 14:42:00,
2013-08-30 10:47:00,77.1,68.2,29.95,WSW,244,14.0,14.0,74,0.00,CLR,,0.00,WeatherDisplay:10.37,2013-08-30 14:47:00,
2013-08-30 10:52:00,77.5,68.9,29.95,SW,230,10.4,10.4,75,0.00,CLR,,0.00,WeatherDisplay:10.37,2013-08-30 14:52:00,
2013-08-30 10:57:00,77.7,68.7,29.94,SW,234,11.5,11.5,74,0.00,CLR,,0.00,WeatherDisplay:10.37,2013-08-30 14:57:00,
2013-08-30 11:02:00,77.9,68.9,29.94,WSW,242,10.4,10.4,74,0.00,CLR,,0.00,WeatherDisplay:10.37,2013-08-30 15:02:00,
2013-08-30 11:07:00,78.2,69.2,29.93,WSW,237,9.2,9.2,74,0.00,CLR,,0.00,WeatherDisplay:10.37,2013-08-30 15:07:00,
2013-08-30 11:12:00,79.0,69.6,29.93,WSW,242,10.4,10.4,73,0.00,CLR,,0.00,WeatherDisplay:10.37,2013-08-30 15:12:00,
2013-08-30 11:17:00,78.8,69.4,29.93,WSW,237,10.0,10.0,73,0.00,CLR,,0.00,WeatherDisplay:10.37,2013-08-30 15:17:00,
2013-08-30 11:22:00,79.2,69.4,29.93,WSW,245,9.2,9.2,72,0.00,CLR,,0.00,WeatherDisplay:10.37,2013-08-30 15:22:00,
2013-08-30 11:27:00,79.3,69.5,29.93,WSW,248,11.5,11.5,72,0.00,CLR,,0.00,WeatherDisplay:10.37,2013-08-30 15:27:00,
2013-08-30 11:32:00,80.0,70.2,29.93,SW,234,9.2,9.2,72,0.00,CLR,,0.00,WeatherDisplay:10.37,2013-08-30 15:32:00,
2013-08-30 11:37:00,79.4,68.3,29.93,WSW,255,8.1,8.1,69,0.00,CLR,,0.00,WeatherDisplay:10.37,2013-08-30 15:37:00,
2013-08-30 11:42:00,79.9,70.1,29.92,WSW,240,13.0,13.0,72,0.00,CLR,,0.00,WeatherDisplay:10.37,2013-08-30 15:42:00,
2013-08-30 11:47:00,79.9,69.7,29.92,WSW,257,10.4,10.4,71,0.00,CLR,,0.00,WeatherDisplay:10.37,2013-08-30 15:47:00,
2013-08-30 11:52:00,80.8,69.7,29.92,West,267,12.7,12.7,69,0.00,CLR,,0.00,WeatherDisplay:10.37,2013-08-30 15:52:00,
2013-08-30 11:57:00,81.1,70.4,29.92,SW,229,13.0,13.0,70,0.00,CLR,,0.00,WeatherDisplay:10.37,2013-08-30 15:57:00,
2013-08-30 12:02:00,81.3,70.6,29.92,West,259,13.0,13.0,70,0.00,CLR,,0.00,WeatherDisplay:10.37,2013-08-30 16:02:00,
2013-08-30 12:07:00,80.9,69.8,29.92,WSW,257,11.5,11.5,69,0.00,CLR,,0.00,WeatherDisplay:10.37,2013-08-30 16:07:00,
2013-08-30 12:12:00,80.1,69.0,29.91,WSW,237,12.7,12.7,69,0.00,CLR,,0.00,WeatherDisplay:10.37,2013-08-30 16:12:00,
2013-08-30 12:17:00,79.7,69.5,29.91,SW,231,10.4,10.4,71,0.00,CLR,,0.00,WeatherDisplay:10.37,2013-08-30 16:17:00,
2013-08-30 12:22:00,80.8,69.7,29.91,WSW,240,11.5,11.5,69,0.00,CLR,,0.00,WeatherDisplay:10.37,2013-08-30 16:22:00,
2013-08-30 12:27:00,81.6,70.4,29.91,SW,234,14.0,14.0,69,0.00,CLR,,0.00,WeatherDisplay:10.37,2013-08-30 16:27:00,
2013-08-30 12:32:00,81.1,69.5,29.90,WSW,254,9.2,9.2,68,0.00,CLR,,0.00,WeatherDisplay:10.37,2013-08-30 16:32:00,
2013-08-30 12:37:00,81.4,70.7,29.90,SW,234,8.1,8.1,70,0.00,CLR,,0.00,WeatherDisplay:10.37,2013-08-30 16:37:00,
2013-08-30 12:42:00,81.2,70.1,29.90,West,260,9.2,9.2,69,0.00,CLR,,0.00,WeatherDisplay:10.37,2013-08-30 16:42:00,
2013-08-30 12:47:00,81.7,70.5,29.90,SW,216,10.0,10.0,69,0.00,CLR,,0.00,WeatherDisplay:10.37,2013-08-30 16:47:00,
2013-08-30 12:52:00,82.2,70.6,29.90,SW,226,11.5,11.5,68,0.00,CLR,,0.00,WeatherDisplay:10.37,2013-08-30 16:52:00,
2013-08-30 12:57:00,81.6,69.6,29.90,SW,227,10.4,10.4,67,0.00,CLR,,0.00,WeatherDisplay:10.37,2013-08-30 16:57:00,
2013-08-30 13:02:00,81.4,69.8,29.90,SW,223,8.0,8.0,68,0.00,CLR,,0.00,WeatherDisplay:10.37,2013-08-30 17:02:00,
2013-08-30 13:07:00,80.7,69.6,29.90,SW,236,9.2,9.2,69,0.00,CLR,,0.00,WeatherDisplay:10.37,2013-08-30 17:07:00,
2013-08-30 13:12:00,82.0,71.7,29.89,WSW,242,10.0,10.0,71,0.00,CLR,,0.00,WeatherDisplay:10.37,2013-08-30 17:12:00,
2013-08-30 13:17:00,82.7,70.2,29.89,SW,223,8.1,8.1,66,0.00,CLR,,0.00,WeatherDisplay:10.37,2013-08-30 17:17:00,
2013-08-30 13:22:00,83.4,69.9,29.89,WSW,238,10.4,10.4,64,0.00,CLR,,0.00,WeatherDisplay:10.37,2013-08-30 17:22:00,
2013-08-30 13:27:00,81.6,69.6,29.89,WSW,257,7.0,7.0,67,0.00,CLR,,0.00,WeatherDisplay:10.37,2013-08-30 17:27:00,
2013-08-30 13:32:00,82.3,71.5,29.89,SSW,210,8.1,8.1,70,0.00,CLR,,0.00,WeatherDisplay:10.37,2013-08-30 17:32:00,
2013-08-30 13:37:00,83.0,70.5,29.89,SW,236,9.2,9.2,66,0.00,CLR,,0.00,WeatherDisplay:10.37,2013-08-30 17:37:00,
2013-08-30 13:42:00,83.6,70.1,29.89,WSW,254,11.5,11.5,64,0.00,CLR,,0.00,WeatherDisplay:10.37,2013-08-30 17:42:00,
2013-08-30 13:47:00,83.9,71.3,29.89,SW,219,10.4,10.4,66,0.00,CLR,,0.00,WeatherDisplay:10.37,2013-08-30 17:47:00,
2013-08-30 13:52:00,84.3,70.8,29.89,SW,227,13.0,13.0,64,0.00,CLR,,0.00,WeatherDisplay:10.37,2013-08-30 17:52:00,
2013-08-30 13:57:00,84.1,69.7,29.88,SW,225,15.0,15.0,62,0.00,CLR,,0.00,WeatherDisplay:10.37,2013-08-30 17:57:00,
2013-08-30 14:02:00,84.3,70.3,29.88,SW,233,15.0,15.0,63,0.00,CLR,,0.00,WeatherDisplay:10.37,2013-08-30 18:02:00,
2013-08-30 14:07:00,84.5,71.0,29.88,SSW,211,11.5,11.5,64,0.00,CLR,,0.00,WeatherDisplay:10.37,2013-08-30 18:07:00,
2013-08-30 14:12:00,85.0,70.5,29.88,West,261,11.5,11.5,62,0.00,CLR,,0.00,WeatherDisplay:10.37,2013-08-30 18:12:00,
2013-08-30 14:17:00,84.9,69.9,29.87,WSW,243,13.0,13.0,61,0.00,CLR,,0.00,WeatherDisplay:10.37,2013-08-30 18:17:00,
2013-08-30 14:22:00,83.6,69.7,29.87,West,267,10.4,10.4,63,0.00,CLR,,0.00,WeatherDisplay:10.37,2013-08-30 18:22:00,
2013-08-30 14:27:00,84.3,69.9,29.87,SW,216,13.8,13.8,62,0.00,CLR,,0.00,WeatherDisplay:10.37,2013-08-30 18:27:00,
2013-08-30 14:32:00,84.7,71.6,29.87,SW,221,9.2,9.2,65,0.00,CLR,,0.00,WeatherDisplay:10.37,2013-08-30 18:32:00,
2013-08-30 14:37:00,85.4,70.4,29.87,SSW,193,11.5,11.5,61,0.00,CLR,,0.00,WeatherDisplay:10.37,2013-08-30 18:37:00,
2013-08-30 14:42:00,85.5,70.5,29.87,SW,233,12.0,12.0,61,0.00,CLR,,0.00,WeatherDisplay:10.37,2013-08-30 18:42:00,
2013-08-30 14:47:00,85.4,70.4,29.87,SW,229,12.7,12.7,61,0.00,CLR,,0.00,WeatherDisplay:10.37,2013-08-30 18:47:00,
2013-08-30 14:52:00,85.2,69.7,29.87,WSW,238,15.0,15.0,60,0.00,CLR,,0.00,WeatherDisplay:10.37,2013-08-30 18:52:00,
2013-08-30 14:57:00,85.7,70.7,29.87,West,260,12.0,12.0,61,0.00,CLR,,0.00,WeatherDisplay:10.37,2013-08-30 18:57:00,
2013-08-30 15:02:00,84.9,69.5,29.87,WSW,238,13.0,13.0,60,0.00,CLR,,0.00,WeatherDisplay:10.37,2013-08-30 19:02:00,
2013-08-30 15:07:00,85.0,70.5,29.86,WSW,246,10.4,10.4,62,0.00,CLR,,0.00,WeatherDisplay:10.37,2013-08-30 19:07:00,
2013-08-30 15:12:00,85.5,71.0,29.86,SW,235,10.4,10.4,62,0.00,CLR,,0.00,WeatherDisplay:10.37,2013-08-30 19:12:00,
2013-08-30 15:17:00,85.3,69.8,29.86,SW,229,13.0,13.0,60,0.00,CLR,,0.00,WeatherDisplay:10.37,2013-08-30 19:17:00,
2013-08-30 15:22:00,84.4,69.5,29.86,SW,234,14.0,14.0,61,0.00,CLR,,0.00,WeatherDisplay:10.37,2013-08-30 19:22:00,
2013-08-30 15:27:00,84.4,70.0,29.86,SW,232,14.0,14.0,62,0.00,CLR,,0.00,WeatherDisplay:10.37,2013-08-30 19:27:00,
2013-08-30 15:32:00,85.0,69.6,29.86,SW,233,12.0,12.0,60,0.00,CLR,,0.00,WeatherDisplay:10.37,2013-08-30 19:32:00,
2013-08-30 15:37:00,85.2,70.2,29.85,SW,230,10.4,10.4,61,0.00,CLR,,0.00,WeatherDisplay:10.37,2013-08-30 19:37:00,
2013-08-30 15:42:00,85.7,69.7,29.85,SW,223,8.1,8.1,59,0.00,CLR,,0.00,WeatherDisplay:10.37,2013-08-30 19:42:00,
2013-08-30 15:47:00,85.2,69.7,29.85,WSW,241,10.4,10.4,60,0.00,CLR,,0.00,WeatherDisplay:10.37,2013-08-30 19:47:00,
2013-08-30 15:52:00,84.1,69.2,29.85,WSW,237,16.1,16.1,61,0.00,CLR,,0.00,WeatherDisplay:10.37,2013-08-30 19:52:00,
2013-08-30 15:57:00,85.2,70.2,29.85,SW,232,13.0,13.0,61,0.00,CLR,,0.00,WeatherDisplay:10.37,2013-08-30 19:57:00,
2013-08-30 16:02:00,85.7,69.7,29.85,SSW,203,11.5,11.5,59,0.00,CLR,,0.00,WeatherDisplay:10.37,2013-08-30 20:02:00,
2013-08-30 16:07:00,85.7,69.7,29.84,WSW,238,15.0,15.0,59,0.00,CLR,,0.00,WeatherDisplay:10.37,2013-08-30 20:07:00,
2013-08-30 16:12:00,85.9,70.4,29.84,WSW,249,11.5,11.5,60,0.00,CLR,,0.00,WeatherDisplay:10.37,2013-08-30 20:12:00,
2013-08-30 16:17:00,85.4,69.4,29.84,SSW,201,11.5,11.5,59,0.00,CLR,,0.00,WeatherDisplay:10.37,2013-08-30 20:17:00,
2013-08-30 16:22:00,84.7,69.3,29.84,SW,234,12.0,12.0,60,0.00,CLR,,0.00,WeatherDisplay:10.37,2013-08-30 20:22:00,
2013-08-30 16:27:00,85.3,69.8,29.84,West,267,13.0,13.0,60,0.00,CLR,,0.00,WeatherDisplay:10.37,2013-08-30 20:27:00,
2013-08-30 16:32:00,85.5,70.0,29.84,WSW,240,12.7,12.7,60,0.00,CLR,,0.00,WeatherDisplay:10.37,2013-08-30 20:32:00,
2013-08-30 16:37:00,85.6,69.6,29.84,SW,236,16.0,16.0,59,0.00,CLR,,0.00,WeatherDisplay:10.37,2013-08-30 20:37:00,
2013-08-30 16:42:00,85.4,69.4,29.83,SW,225,11.5,11.5,59,0.00,CLR,,0.00,WeatherDisplay:10.37,2013-08-30 20:42:00,
2013-08-30 16:47:00,85.2,69.7,29.83,SW,225,10.0,10.0,60,0.00,CLR,,0.00,WeatherDisplay:10.37,2013-08-30 20:47:00,
2013-08-30 16:52:00,85.2,69.3,29.83,SW,231,8.1,8.1,59,0.00,CLR,,0.00,WeatherDisplay:10.37,2013-08-30 20:52:00,
2013-08-30 16:57:00,85.0,69.6,29.83,WSW,250,12.0,12.0,60,0.00,CLR,,0.00,WeatherDisplay:10.37,2013-08-30 20:57:00,
2013-08-30 17:02:00,84.8,68.9,29.83,SW,234,13.8,13.8,59,0.00,CLR,,0.00,WeatherDisplay:10.37,2013-08-30 21:02:00,
2013-08-30 17:07:00,84.7,68.8,29.83,SW,228,12.0,12.0,59,0.00,CLR,,0.00,WeatherDisplay:10.37,2013-08-30 21:07:00,
2013-08-30 17:12:00,84.5,69.6,29.82,SW,229,11.5,11.5,61,0.00,CLR,,0.00,WeatherDisplay:10.37,2013-08-30 21:12:00,
2013-08-30 17:17:00,84.7,70.2,29.82,SW,216,12.0,12.0,62,0.00,CLR,,0.00,WeatherDisplay:10.37,2013-08-30 21:17:00,
2013-08-30 17:22:00,84.6,69.2,29.82,SW,233,12.0,12.0,60,0.00,CLR,,0.00,WeatherDisplay:10.37,2013-08-30 21:22:00,
2013-08-30 17:27:00,84.1,69.7,29.82,SW,215,12.0,12.0,62,0.00,CLR,,0.00,WeatherDisplay:10.37,2013-08-30 21:27:00,
2013-08-30 17:32:00,83.9,69.0,29.82,SW,214,10.4,10.4,61,0.00,CLR,,0.00,WeatherDisplay:10.37,2013-08-30 21:32:00,
2013-08-30 17:37:00,83.3,69.4,29.81,West,259,13.0,13.0,63,0.00,CLR,,0.00,WeatherDisplay:10.37,2013-08-30 21:37:00,
2013-08-30 17:42:00,83.2,68.8,29.81,SW,228,13.0,13.0,62,0.00,CLR,,0.00,WeatherDisplay:10.37,2013-08-30 21:42:00,
2013-08-30 17:47:00,83.3,68.9,29.81,SW,227,11.5,11.5,62,0.00,CLR,,0.00,WeatherDisplay:10.37,2013-08-30 21:47:00,
2013-08-30 17:52:00,83.2,68.8,29.81,SW,222,11.5,11.5,62,0.00,CLR,,0.00,WeatherDisplay:10.37,2013-08-30 21:52:00,
2013-08-30 17:57:00,83.1,68.7,29.81,SW,225,12.0,12.0,62,0.00,CLR,,0.00,WeatherDisplay:10.37,2013-08-30 21:57:00,
2013-08-30 18:02:00,82.5,68.6,29.81,SSW,213,11.5,11.5,63,0.00,CLR,,0.00,WeatherDisplay:10.37,2013-08-30 22:02:00,
2013-08-30 18:07:00,82.2,68.8,29.80,SSW,209,11.5,11.5,64,0.00,CLR,,0.00,WeatherDisplay:10.37,2013-08-30 22:07:00,
2013-08-30 18:12:00,82.5,69.1,29.80,SW,224,11.5,11.5,64,0.00,CLR,,0.00,WeatherDisplay:10.37,2013-08-30 22:12:00,
2013-08-30 18:17:00,82.6,69.6,29.80,SW,233,8.0,8.0,65,0.00,CLR,,0.00,WeatherDisplay:10.37,2013-08-30 22:17:00,
2013-08-30 18:22:00,82.5,69.1,29.80,SW,225,11.0,11.0,64,0.00,CLR,,0.00,WeatherDisplay:10.37,2013-08-30 22:22:00,
2013-08-30 18:27:00,82.3,68.9,29.80,SW,232,11.0,11.0,64,0.00,CLR,,0.00,WeatherDisplay:10.37,2013-08-30 22:27:00,
2013-08-30 18:32:00,82.0,68.6,29.79,SW,230,12.0,12.0,64,0.00,CLR,,0.00,WeatherDisplay:10.37,2013-08-30 22:32:00,
2013-08-30 18:37:00,81.8,68.4,29.79,SW,232,13.0,13.0,64,0.00,CLR,,0.00,WeatherDisplay:10.37,2013-08-30 22:37:00,
2013-08-30 18:42:00,81.6,68.7,29.79,SW,217,8.0,8.0,65,0.00,CLR,,0.00,WeatherDisplay:10.37,2013-08-30 22:42:00,
2013-08-30 18:47:00,81.4,68.5,29.79,SW,232,11.5,11.5,65,0.00,CLR,,0.00,WeatherDisplay:10.37,2013-08-30 22:47:00,
2013-08-30 18:52:00,81.2,68.8,29.79,SW,220,9.2,9.2,66,0.00,CLR,,0.00,WeatherDisplay:10.37,2013-08-30 22:52:00,
2013-08-30 18:57:00,81.1,69.1,29.79,SW,228,11.0,11.0,67,0.00,CLR,,0.00,WeatherDisplay:10.37,2013-08-30 22:57:00,
2013-08-30 19:02:00,80.9,68.9,29.78,SSW,208,9.0,9.0,67,0.00,CLR,,0.00,WeatherDisplay:10.37,2013-08-30 23:02:00,
2013-08-30 19:07:00,80.6,69.1,29.78,SW,232,8.1,8.1,68,0.00,CLR,,0.00,WeatherDisplay:10.37,2013-08-30 23:07:00,
2013-08-30 19:12:00,80.4,68.9,29.78,WSW,240,7.0,7.0,68,0.00,CLR,,0.00,WeatherDisplay:10.37,2013-08-30 23:12:00,
2013-08-30 19:17:00,80.1,69.0,29.78,SW,223,7.0,7.0,69,0.00,CLR,,0.00,WeatherDisplay:10.37,2013-08-30 23:17:00,
2013-08-30 19:22:00,79.9,68.8,29.78,SSW,210,6.0,6.0,69,0.00,CLR,,0.00,WeatherDisplay:10.37,2013-08-30 23:22:00,
2013-08-30 19:27:00,79.8,69.1,29.78,SW,232,6.0,6.0,70,0.00,CLR,,0.00,WeatherDisplay:10.37,2013-08-30 23:27:00,
2013-08-30 19:32:00,79.5,68.9,29.78,SW,236,7.0,7.0,70,0.00,CLR,,0.00,WeatherDisplay:10.37,2013-08-30 23:32:00,
2013-08-30 19:37:00,79.3,68.7,29.78,SW,223,5.0,5.0,70,0.00,CLR,,0.00,WeatherDisplay:10.37,2013-08-30 23:37:00,
2013-08-30 19:42:00,79.1,68.9,29.78,SW,225,5.0,5.0,71,0.00,CLR,,0.00,WeatherDisplay:10.37,2013-08-30 23:42:00,
2013-08-30 19:47:00,78.7,68.5,29.78,WSW,239,5.8,5.8,71,0.00,CLR,,0.00,WeatherDisplay:10.37,2013-08-30 23:47:00,
2013-08-30 19:52:00,78.7,68.9,29.79,SW,218,4.0,4.0,72,0.00,CLR,,0.00,WeatherDisplay:10.37,2013-08-30 23:52:00,
2013-08-30 19:57:00,78.4,68.6,29.79,SW,225,5.0,5.0,72,0.00,CLR,,0.00,WeatherDisplay:10.37,2013-08-30 23:57:00,
2013-08-30 20:02:00,78.1,68.3,29.79,SW,222,5.0,5.0,72,0.00,CLR,,0.00,WeatherDisplay:10.37,2013-08-31 00:02:00,
2013-08-30 20:07:00,78.0,68.2,29.79,SW,223,4.0,4.0,72,0.00,CLR,,0.00,WeatherDisplay:10.37,2013-08-31 00:07:00,
2013-08-30 20:22:00,77.7,68.4,29.81,SW,221,4.0,4.0,73,0.00,CLR,,0.00,WeatherDisplay:10.37,2013-08-31 00:22:00,
2013-08-30 20:27:00,77.8,68.4,29.81,SW,223,17.3,17.3,73,0.00,CLR,,0.00,WeatherDisplay:10.37,2013-08-31 00:27:00,
2013-08-30 20:32:00,77.7,68.4,29.81,SW,229,3.5,3.5,73,0.00,CLR,,0.00,WeatherDisplay:10.37,2013-08-31 00:32:00,
2013-08-30 20:37:00,77.6,68.3,29.81,SW,229,3.5,3.5,73,0.00,CLR,,0.00,WeatherDisplay:10.37,2013-08-31 00:37:00,
2013-08-30 20:42:00,77.4,68.1,29.81,SW,215,0.0,0.0,73,0.00,CLR,,0.00,WeatherDisplay:10.37,2013-08-31 00:42:00,
2013-08-30 20:47:00,77.4,68.1,29.81,SW,215,1.2,0.0,73,0.00,CLR,,0.00,WeatherDisplay:10.37,2013-08-31 00:47:00,
2013-08-30 20:52:00,77.4,68.1,29.82,SW,216,0.0,0.0,73,0.00,CLR,,0.00,WeatherDisplay:10.37,2013-08-31 00:52:00,
2013-08-30 20:57:00,77.3,68.0,29.82,SW,216,1.2,1.2,73,0.00,CLR,,0.00,WeatherDisplay:10.37,2013-08-31 00:57:00,
2013-08-30 21:02:00,77.2,68.3,29.82,SW,217,0.0,0.0,74,0.00,CLR,,0.00,WeatherDisplay:10.37,2013-08-31 01:02:00,
2013-08-30 21:07:00,77.1,68.2,29.82,SW,217,1.2,1.2,74,0.00,CLR,,0.00,WeatherDisplay:10.37,2013-08-31 01:07:00,
2013-08-30 21:12:00,76.9,68.0,29.82,SW,217,3.5,3.5,74,0.00,CLR,,0.00,WeatherDisplay:10.37,2013-08-31 01:12:00,
2013-08-30 21:17:00,76.6,67.7,29.82,SW,219,4.0,4.0,74,0.00,CLR,,0.00,WeatherDisplay:10.37,2013-08-31 01:17:00,
2013-08-30 21:22:00,76.3,67.8,29.82,SW,219,4.0,4.0,75,0.00,CLR,,0.00,WeatherDisplay:10.37,2013-08-31 01:22:00,
2013-08-30 21:27:00,76.0,67.9,29.82,SW,220,4.0,4.0,76,0.00,CLR,,0.00,WeatherDisplay:10.37,2013-08-31 01:27:00,
2013-08-30 21:32:00,75.6,67.9,29.82,SW,221,5.0,5.0,77,0.00,CLR,,0.00,WeatherDisplay:10.37,2013-08-31 01:32:00,
2013-08-30 21:37:00,75.5,67.8,29.82,SW,221,6.0,6.0,77,0.00,CLR,,0.00,WeatherDisplay:10.37,2013-08-31 01:37:00,
2013-08-30 21:42:00,75.4,67.7,29.82,SW,227,6.0,6.0,77,0.00,CLR,,0.00,WeatherDisplay:10.37,2013-08-31 01:42:00,
2013-08-30 21:47:00,75.3,67.6,29.82,SW,223,4.6,4.6,77,0.00,CLR,,0.00,WeatherDisplay:10.37,2013-08-31 01:47:00,
2013-08-30 21:52:00,75.2,67.5,29.82,SW,222,4.0,4.0,77,0.00,CLR,,0.00,WeatherDisplay:10.37,2013-08-31 01:52:00,
2013-08-30 21:57:00,75.1,67.8,29.81,SW,218,5.0,5.0,78,0.00,CLR,,0.00,WeatherDisplay:10.37,2013-08-31 01:57:00,
2013-08-30 22:02:00,75.1,67.8,29.82,SW,223,4.0,4.0,78,0.00,CLR,,0.00,WeatherDisplay:10.37,2013-08-31 02:02:00,
2013-08-30 22:07:00,75.1,67.8,29.81,SW,219,6.0,6.0,78,0.00,CLR,,0.00,WeatherDisplay:10.37,2013-08-31 02:07:00,
2013-08-30 22:12:00,75.1,67.8,29.82,SW,229,6.0,6.0,78,0.00,CLR,,0.00,WeatherDisplay:10.37,2013-08-31 02:12:00,
2013-08-30 22:17:00,74.9,67.6,29.81,SW,223,6.0,6.0,78,0.00,CLR,,0.00,WeatherDisplay:10.37,2013-08-31 02:17:00,
2013-08-30 22:22:00,74.7,67.4,29.81,SW,217,7.0,7.0,78,0.00,CLR,,0.00,WeatherDisplay:10.37,2013-08-31 02:22:00,
2013-08-30 22:27:00,74.6,67.7,29.81,SW,225,7.0,7.0,79,0.00,CLR,,0.00,WeatherDisplay:10.37,2013-08-31 02:27:00,
2013-08-30 22:32:00,74.4,67.5,29.80,SW,225,7.0,7.0,79,0.00,CLR,,0.00,WeatherDisplay:10.37,2013-08-31 02:32:00,
2013-08-30 22:37:00,74.4,67.5,29.81,SW,214,8.1,8.1,79,0.00,CLR,,0.00,WeatherDisplay:10.37,2013-08-31 02:37:00,
2013-08-30 22:42:00,74.4,67.5,29.81,SW,223,6.0,6.0,79,0.00,CLR,,0.00,WeatherDisplay:10.37,2013-08-31 02:42:00,
2013-08-30 22:47:00,74.4,67.5,29.81,SSW,211,6.0,6.0,79,0.00,CLR,,0.00,WeatherDisplay:10.37,2013-08-31 02:47:00,
2013-08-30 22:52:00,74.4,67.5,29.81,SW,229,7.0,7.0,79,0.00,CLR,,0.00,WeatherDisplay:10.37,2013-08-31 02:52:00,
2013-08-30 22:57:00,74.3,67.4,29.81,SW,226,8.1,8.1,79,0.00,CLR,,0.00,WeatherDisplay:10.37,2013-08-31 02:57:00,
2013-08-30 23:02:00,74.2,67.3,29.80,SW,227,8.1,8.1,79,0.00,CLR,,0.00,WeatherDisplay:10.37,2013-08-31 03:02:00,
2013-08-30 23:07:00,74.0,67.4,29.80,WSW,238,8.1,8.1,80,0.00,CLR,,0.00,WeatherDisplay:10.37,2013-08-31 03:07:00,
2013-08-30 23:12:00,73.9,67.3,29.81,SW,234,7.0,7.0,80,0.00,CLR,,0.00,WeatherDisplay:10.37,2013-08-31 03:12:00,
2013-08-30 23:17:00,73.8,67.2,29.81,SW,233,7.0,7.0,80,0.00,CLR,,0.00,WeatherDisplay:10.37,2013-08-31 03:17:00,
2013-08-30 23:22:00,73.7,67.1,29.80,SW,230,7.0,7.0,80,0.00,CLR,,0.00,WeatherDisplay:10.37,2013-08-31 03:22:00,
2013-08-30 23:27:00,73.5,66.9,29.80,SW,221,8.0,8.0,80,0.00,CLR,,0.00,WeatherDisplay:10.37,2013-08-31 03:27:00,
2013-08-30 23:32:00,73.4,67.2,29.80,SSW,211,9.0,9.0,81,0.00,CLR,,0.00,WeatherDisplay:10.37,2013-08-31 03:32:00,
2013-08-30 23:37:00,73.4,67.2,29.80,WSW,238,8.1,8.1,81,0.00,CLR,,0.00,WeatherDisplay:10.37,2013-08-31 03:37:00,
2013-08-30 23:42:00,73.3,67.1,29.80,SW,219,8.1,8.1,81,0.00,CLR,,0.00,WeatherDisplay:10.37,2013-08-31 03:42:00,
2013-08-30 23:47:00,73.2,67.0,29.80,WSW,238,9.0,9.0,81,0.00,CLR,,0.00,WeatherDisplay:10.37,2013-08-31 03:47:00,
2013-08-30 23:52:00,73.1,66.9,29.79,SW,232,7.0,7.0,81,0.00,CLR,,0.00,WeatherDisplay:10.37,2013-08-31 03:52:00,
2013-08-30 23:57:00,73.0,66.8,29.79,SW,233,8.1,8.1,81,0.00,CLR,,0.00,WeatherDisplay:10.37,2013-08-31 03:57:00,